Weather History for KCPR - August, 2014

Change the Weather History Date:

Sunday, August 10, 2014

  Actual Average Record
Temperature  
Mean Temperature 65 °F 70 °F  
Max Temperature 84 °F 88 °F 99 °F (1969)
Min Temperature 46 °F 53 °F 39 °F (2002)
Degree Days  
Heating Degree Days 0 1  
Month to date heating degree days 0 1  
Since 1 June heating degree days 174 153  
Since 1 July heating degree days 16 17  
Cooling Degree Days 0 6  
Month to date cooling degree days 41 64  
Year to date cooling degree days 252 309  
Since 1 June cooling degree days 246 305  
Growing Degree Days 14 (Base 50)    
Moisture  
Dew Point 43 °F    
Average Humidity 56    
Maximum Humidity 93    
Minimum Humidity 18    
Precipitation  
Precipitation 0.00 in 0.03 in 1.17 in (1941)
Month to date precipitation 0.53 0.35  
Year to date precipitation 7.81 8.58  
Snow  
Snow 0.00 in 0.00 in - ()
Month to date snowfall 0.0 0.0  
Since 1 June snowfall T 0.1  
Since 1 July snowfall T 0.0  
Snow Depth 0.00 in    
Sea Level Pressure  
Sea Level Pressure 30.18 in    
Wind  
Wind Speed 5 mph (NE)    
Max Wind Speed 12 mph    
Max Gust Speed 18 mph    
Visibility 10 miles    
Events      
T = Trace of Precipitation, MM = Missing Value Source: NWS Daily Summary

Daily Weather History Graph

Daily Weather History Graph

Search for Another Location

Airport or City:

Trip Planner

Search our weather history database for the weather conditions in past years. The results will help you decide how hot, cold, wet, or windy it might be!

Date:

Astronomy

Aug. 10, 2014 Rise Set
Actual Time 6:06 AM MDT 8:15 PM MDT
Civil Twilight 5:35 AM MDT 8:46 PM MDT
Nautical Twilight 4:57 AM MDT 9:24 PM MDT
Astronomical Twilight 4:14 AM MDT 10:06 PM MDT
Moon 8:01 PM MDT (8/10) 6:03 AM MDT (8/10)
Length of Visible Light 15h 10m
Length of Day
14h 08m
Full, 100% of the Moon is Illuminated
Aug 10
Full
Aug 10
Full
Aug 17
Last Quarter
Aug 25
New
Sep 2
First Quarter

Hourly Weather History & Observations

Time (MDT) Temp. Dew Point Humidity Pressure Visibility Wind Dir Wind Speed Gust Speed Precip Events Conditions
12:53 AM 55.9 °F 46.9 °F 72% 30.15 in 10.0 mi East 4.6 mph - N/A   Clear
1:53 AM 52.0 °F 48.0 °F 86% 30.18 in 10.0 mi North 5.8 mph - N/A   Clear
2:53 AM 50.0 °F 46.9 °F 89% 30.20 in 10.0 mi NW 4.6 mph - N/A   Clear
3:53 AM 50.0 °F 46.9 °F 89% 30.19 in 10.0 mi West 5.8 mph - N/A   Clear
4:53 AM 50.0 °F 46.0 °F 86% 30.19 in 10.0 mi NW 4.6 mph - N/A   Clear
5:53 AM 46.9 °F 45.0 °F 93% 30.22 in 10.0 mi Calm Calm - N/A   Clear
6:53 AM 51.1 °F 46.9 °F 86% 30.22 in 10.0 mi Calm Calm - N/A   Clear
7:53 AM 57.2 °F 50.0 °F 77% 30.37 in 10.0 mi Calm Calm - N/A   Clear
8:53 AM 64.0 °F 51.1 °F 63% 30.23 in 10.0 mi Calm Calm - N/A   Clear
9:53 AM 69.1 °F 48.9 °F 49% 30.22 in 10.0 mi Calm Calm - N/A   Clear
10:53 AM 71.1 °F 46.0 °F 41% 30.22 in 10.0 mi Calm Calm - N/A   Clear
11:53 AM 75.0 °F 43.0 °F 32% 30.20 in 10.0 mi ESE 6.9 mph - N/A   Clear
12:53 PM 77.0 °F 36.0 °F 23% 30.18 in 10.0 mi South 6.9 mph - N/A   Clear
1:53 PM 80.6 °F 37.4 °F 21% 30.33 in 10.0 mi West 4.6 mph - N/A   Clear
2:53 PM 82.0 °F 37.0 °F 20% 30.15 in 10.0 mi North 10.4 mph - N/A   Clear
3:53 PM 82.0 °F 36.0 °F 19% 30.13 in 10.0 mi Variable 5.8 mph - N/A   Clear
4:53 PM 82.9 °F 37.0 °F 19% 30.11 in 10.0 mi NE 5.8 mph - N/A   Clear
5:53 PM 82.4 °F 37.4 °F 20% 30.27 in 10.0 mi Variable 5.8 mph - N/A   Clear
6:53 PM 81.0 °F 37.0 °F 21% 30.09 in 10.0 mi ENE 6.9 mph - N/A   Clear
7:53 PM 75.0 °F 39.0 °F 27% 30.09 in 10.0 mi ESE 6.9 mph - N/A   Clear
8:53 PM 72.0 °F 39.9 °F 31% 30.10 in 10.0 mi East 6.9 mph - N/A   Clear
10:53 PM 66.0 °F 42.1 °F 42% 30.12 in 10.0 mi East 9.2 mph - N/A   Clear
11:53 PM 61.0 °F 42.1 °F 50% 30.14 in 10.0 mi ENE 3.5 mph - N/A   Clear